Waarnemingen

Advertentie
Mijn weer
Isle Of Portland, Groot Brittannië (3857): temperatuur & dauwpunt: 13.06.2018 21:00:00 - 19.06.2018 21:00:00 (BST)Isle Of Portland, Groot Brittannië (3857): windsnelheid & windstoten: 13.06.2018 21:00:00 - 19.06.2018 21:00:00 (BST)Isle Of Portland, Groot Brittannië (3857): windrichting: 13.06.2018 21:00:00 - 19.06.2018 21:00:00 (BST)Isle Of Portland, Groot Brittannië (3857): luchtdruk: 13.06.2018 21:00:00 - 19.06.2018 21:00:00 (BST)Isle Of Portland, Groot Brittannië (3857): zicht: 13.06.2018 21:00:00 - 19.06.2018 21:00:00 (BST)Isle Of Portland, Groot Brittannië (3857): neerslag: 13.06.2018 21:00:00 - 19.06.2018 21:00:00 (BST)
Datum & Tijd tt [°C] td [°C] ff [km/u] ff [kn] fx [km/u] fx [kn] dd ppp [hPa] vv [km] rr [mm]
19.06.2018 21:00:00 - - - - - - - - - 0,0
19.06.2018 20:00:00 15,3 14,2 15 8 - - ZW 1023,9 13 0,0
19.06.2018 19:00:00 15,6 14,5 21 11 - - WZW 1024,1 12 0,0
19.06.2018 18:00:00 16,3 14,6 21 11 - - ZW 1024,3 19 0,0
19.06.2018 17:00:00 17,5 15,2 21 11 - - ZW 1024,4 19 0,0
19.06.2018 16:00:00 16,3 14,9 21 11 - - WZW 1024,6 1,9 0,0
19.06.2018 15:00:00 16,3 15,1 24 13 - - WZW 1024,7 1,1 0,0
19.06.2018 14:00:00 16,4 15,4 26 14 - - ZW 1024,7 1,1 0,0
19.06.2018 13:00:00 15,9 14,9 22 12 - - ZW 1024,8 1,0 0,0
19.06.2018 12:00:00 16,3 15,1 21 11 - - WZW 1025,0 15 0,0
19.06.2018 11:00:00 15,8 14,9 21 11 - - WZW 1025,0 11 0,0
19.06.2018 10:00:00 15,2 15,2 18 10 - - ZW 1024,9 4,8 0,0
19.06.2018 09:00:00 14,4 14,4 24 13 - - WZW 1025,0 0,5 0,0
19.06.2018 08:00:00 14,2 14,2 18 10 - - WZW 1024,5 0,3 0,0
19.06.2018 07:00:00 14,4 14,4 22 12 - - WZW 1024,1 1,9 0,0
19.06.2018 06:00:00 14,4 14,4 24 13 - - W 1023,7 3,9 0,0
19.06.2018 05:00:00 14,1 14,1 29 16 - - WZW 1023,3 0,4 0,0
19.06.2018 04:00:00 14,0 14,0 29 16 - - WZW 1023,1 0,1 0,0
19.06.2018 03:00:00 14,2 14,2 35 19 46 25 WZW 1023,1 0,1 0,0
19.06.2018 02:00:00 14,3 14,3 34 18 48 26 WZW 1023,0 0,2 0,0
19.06.2018 01:00:00 14,2 14,2 37 20 52 28 W 1023,1 0,1 -
19.06.2018 00:00:00 14,3 14,3 35 19 50 27 W 1023,2 0,1 0,0
18.06.2018 23:00:00 14,3 14,3 39 21 50 27 W 1023,3 0,1 0,0
18.06.2018 22:00:00 14,5 14,5 42 23 50 27 WZW 1023,1 2,2 0,0
18.06.2018 21:00:00 14,5 14,5 39 21 52 28 WZW 1022,4 0,8 0,0
18.06.2018 20:00:00 14,4 14,4 41 22 55 30 WZW 1022,2 0,4 0,0
18.06.2018 19:00:00 14,5 14,4 35 19 50 27 WZW 1022,3 0,2 0,0
18.06.2018 18:00:00 14,8 14,4 35 19 50 27 WZW 1021,9 1,2 0,0
18.06.2018 17:00:00 14,8 14,2 37 20 50 27 WZW 1022,1 2,0 0,0
18.06.2018 16:00:00 15,5 13,6 35 19 48 26 WZW 1022,1 10 0,0
18.06.2018 15:00:00 16,6 13,6 28 15 - - WZW 1022,4 12 0,0
18.06.2018 14:00:00 15,8 12,9 29 16 - - WZW 1022,1 12 0,0
18.06.2018 13:00:00 16,8 12,8 24 13 - - WZW 1022,2 14 0,0
18.06.2018 12:00:00 16,7 12,9 21 11 - - WZW 1022,0 20 0,0
18.06.2018 11:00:00 16,1 13,0 16 9 - - W 1021,9 12 0,0
18.06.2018 10:00:00 14,5 11,8 21 11 - - W 1021,6 27 0,0
18.06.2018 09:00:00 14,2 11,2 28 15 - - WNW 1021,3 27 0,0
18.06.2018 08:00:00 13,6 11,2 31 17 - - WNW 1020,6 25 0,0
18.06.2018 07:00:00 13,8 12,8 28 15 - - W 1019,7 16 0,0
18.06.2018 06:00:00 13,6 13,0 29 16 - - WZW 1019,0 13 0,0
18.06.2018 05:00:00 13,7 13,0 28 15 - - WZW 1019,0 14 0,0
18.06.2018 04:00:00 13,9 12,8 22 12 - - W 1018,8 22 0,0
18.06.2018 03:00:00 13,8 12,8 26 14 - - W 1018,5 22 0,0
18.06.2018 02:00:00 13,7 13,0 29 16 - - W 1018,4 11 0,0
18.06.2018 01:00:00 14,1 14,1 34 18 - - W 1018,3 8 0,0
18.06.2018 00:00:00 14,1 14,1 29 16 - - W 1018,0 3,8 0,0
17.06.2018 23:00:00 13,9 13,9 35 19 - - WZW 1017,6 3,0 0,0
17.06.2018 22:00:00 14,0 14,0 35 19 - - WZW 1017,5 0,1 0,0
17.06.2018 21:00:00 14,1 14,1 31 17 - - ZW 1017,2 0,1 0,0
17.06.2018 20:00:00 14,2 14,1 34 18 - - ZW 1017,2 0,2 0,0
17.06.2018 19:00:00 14,1 14,0 29 16 - - ZW 1017,3 0,2 0,0
17.06.2018 18:00:00 14,2 13,8 31 17 46 25 ZW 1016,9 2,0 0,0
17.06.2018 17:00:00 14,0 13,6 29 16 - - ZZW 1017,1 8 0,0
17.06.2018 16:00:00 13,5 13,0 31 17 - - ZZW 1017,6 6 0,0
17.06.2018 15:00:00 13,7 12,6 31 17 48 26 ZZW 1017,5 15 0,0
17.06.2018 14:00:00 13,7 12,3 29 16 - - ZW 1017,9 15 0,0
17.06.2018 13:00:00 14,6 12,5 34 18 - - ZW 1017,9 13 0,0
17.06.2018 12:00:00 14,8 12,3 31 17 - - ZW 1018,0 12 0,0
17.06.2018 11:00:00 14,6 12,4 24 13 - - ZW 1018,1 13 0,0
17.06.2018 10:00:00 14,8 12,4 26 14 - - ZW 1018,0 14 0,0
17.06.2018 09:00:00 14,0 11,6 18 10 - - WZW 1018,2 16 0,0
17.06.2018 08:00:00 14,0 11,6 24 13 - - WZW 1017,8 16 0,0
17.06.2018 07:00:00 13,7 11,2 24 13 - - W 1017,5 15 0,0
17.06.2018 06:00:00 13,2 11,4 22 12 - - W 1017,2 18 0,0
17.06.2018 05:00:00 13,3 11,2 26 14 - - WZW 1016,7 16 0,0
17.06.2018 04:00:00 13,3 11,1 34 18 - - WZW 1016,7 19 0,0
17.06.2018 03:00:00 13,5 10,5 28 15 - - W 1016,8 21 0,0
17.06.2018 02:00:00 13,5 10,9 35 19 - - W 1016,8 18 0,0
17.06.2018 01:00:00 13,5 11,5 29 16 - - W 1016,8 14 0,0
17.06.2018 00:00:00 13,6 11,6 29 16 50 27 W 1016,6 11 0,0
16.06.2018 23:00:00 13,8 11,6 35 19 48 26 W 1016,5 13 0,0
16.06.2018 22:00:00 13,8 11,6 29 16 - - WZW 1016,2 12 0,0
16.06.2018 21:00:00 14,1 11,0 24 13 - - W 1015,6 13 0,0
16.06.2018 20:00:00 14,6 11,2 29 16 - - W 1015,7 20 0,0
16.06.2018 19:00:00 14,7 11,6 29 16 - - W 1015,2 15 0,0
16.06.2018 18:00:00 14,9 12,1 28 15 - - W 1014,9 9 0,0
16.06.2018 17:00:00 15,0 12,6 29 16 52 28 WZW 1014,6 10 0,0
16.06.2018 16:00:00 16,2 13,2 37 20 52 28 WZW 1014,4 12 0,0
16.06.2018 15:00:00 16,0 13,5 31 17 - - ZW 1014,4 14 0,0
16.06.2018 14:00:00 14,6 13,5 34 18 46 25 ZZW 1014,5 24 0,0
16.06.2018 13:00:00 13,9 12,8 31 17 48 26 ZZW 1014,9 4,9 0,0
16.06.2018 12:00:00 13,7 12,5 29 16 - - ZZW 1015,4 19 0,0
16.06.2018 11:00:00 14,2 12,6 26 14 - - ZZW 1015,3 19 0,0
16.06.2018 10:00:00 13,7 11,6 26 14 - - ZZW 1015,5 16 0,0
16.06.2018 09:00:00 13,8 12,0 22 12 - - ZZW 1015,6 17 0,0
16.06.2018 08:00:00 13,6 12,2 24 13 - - ZW 1015,4 17 0,0
16.06.2018 07:00:00 13,2 11,8 21 11 - - ZW 1015,4 21 0,0
16.06.2018 06:00:00 13,1 11,3 16 9 - - WZW 1015,5 28 0,0
16.06.2018 05:00:00 13,1 11,5 13 7 - - ZW 1015,3 19 0,0
16.06.2018 04:00:00 13,2 11,1 16 9 - - WZW 1015,8 26 0,0
16.06.2018 03:00:00 13,3 11,6 22 12 - - W 1016,2 28 0,0
16.06.2018 02:00:00 13,3 11,5 24 13 - - W 1016,4 21 0,0
16.06.2018 01:00:00 13,4 11,3 21 11 - - W 1016,4 18 0,0
16.06.2018 00:00:00 13,4 11,7 22 12 - - W 1016,6 16 0,0
15.06.2018 23:00:00 13,6 11,7 26 14 - - W 1016,8 16 0,0
15.06.2018 22:00:00 13,7 11,5 22 12 - - W 1016,8 14 0,0
15.06.2018 21:00:00 13,7 11,9 28 15 - - W 1017,0 11 0,0
15.06.2018 20:00:00 14,1 11,7 29 16 - - WZW 1017,4 18 0,0
15.06.2018 19:00:00 14,6 12,1 28 15 - - WZW 1017,3 19 0,0
15.06.2018 18:00:00 14,8 12,4 29 16 - - WZW 1017,5 18 0,0
15.06.2018 17:00:00 15,2 11,8 29 16 - - ZW 1017,8 25 0,0
15.06.2018 16:00:00 16,1 11,9 24 13 - - WZW 1018,4 21 0,0
15.06.2018 15:00:00 16,2 11,9 26 14 - - WZW 1018,6 13 0,0
15.06.2018 14:00:00 16,8 12,7 24 13 - - WZW 1018,5 17 0,0
15.06.2018 13:00:00 16,2 12,3 22 12 - - WZW 1018,5 21 0,0
15.06.2018 12:00:00 16,1 12,6 16 9 - - WZW 1018,4 16 0,0
15.06.2018 11:00:00 15,0 11,8 16 9 - - W 1018,6 11 0,0
15.06.2018 10:00:00 14,1 10,2 13 7 - - W 1018,3 13 0,0
15.06.2018 09:00:00 13,9 10,9 9 5 - - NW 1018,3 15 0,0
15.06.2018 08:00:00 13,4 11,2 15 8 - - WNW 1018,2 14 0,0
15.06.2018 07:00:00 13,0 11,2 16 9 - - WNW 1018,0 13 0,0
15.06.2018 06:00:00 12,2 11,1 13 7 - - NW 1017,6 11 0,0
15.06.2018 05:00:00 12,3 10,8 16 9 - - WNW 1017,7 13 0,0
15.06.2018 04:00:00 12,6 10,9 16 9 - - WNW 1017,4 13 0,0
15.06.2018 03:00:00 12,7 10,9 21 11 - - WNW 1017,3 14 0,0
15.06.2018 02:00:00 13,0 10,8 21 11 - - NW 1017,2 16 0,0
15.06.2018 01:00:00 13,2 10,6 16 9 - - NW 1017,4 17 0,0
15.06.2018 00:00:00 13,3 10,9 16 9 - - NW 1017,4 16 0,0
14.06.2018 23:00:00 14,0 10,8 18 10 - - NW 1017,2 17 0,0
14.06.2018 22:00:00 14,2 11,1 16 9 - - WNW 1016,7 18 0,0
14.06.2018 21:00:00 14,8 11,1 22 12 - - WNW 1016,1 15 0,0
14.06.2018 20:00:00 15,4 11,5 24 13 - - W 1015,7 14 0,0
14.06.2018 19:00:00 16,2 12,2 28 15 - - W 1015,0 12 0,0
14.06.2018 18:00:00 15,9 12,4 28 15 - - WZW 1014,7 9 0,0
14.06.2018 17:00:00 16,2 12,7 28 15 - - WZW 1014,5 11 0,0
14.06.2018 16:00:00 17,1 13,2 24 13 - - WZW 1014,1 11 0,0
14.06.2018 15:00:00 16,9 12,7 28 15 - - WZW 1013,8 13 0,0
14.06.2018 14:00:00 17,2 12,2 28 15 - - W 1013,3 20 0,0
14.06.2018 13:00:00 16,9 12,7 28 15 - - W 1012,9 11 0,0
14.06.2018 12:00:00 15,8 12,3 21 11 - - W 1012,7 14 0,0
14.06.2018 11:00:00 15,0 13,7 34 18 55 30 W 1011,7 9 0,0
14.06.2018 10:00:00 14,4 14,2 44 24 59 32 WZW 1011,0 6 0,0
14.06.2018 09:00:00 13,9 13,7 42 23 57 31 ZW 1011,1 3,7 0,0
14.06.2018 08:00:00 13,7 13,5 42 23 54 29 ZW 1011,2 5 0,0
14.06.2018 07:00:00 13,8 13,0 39 21 54 29 ZW 1011,7 5 0,0
14.06.2018 06:00:00 13,7 12,7 34 18 46 25 ZZW 1011,8 10 0,0
14.06.2018 05:00:00 13,5 12,4 34 18 - - ZW 1012,6 12 0,0
14.06.2018 04:00:00 13,5 12,4 29 16 - - ZW 1013,3 13 0,0
14.06.2018 03:00:00 13,5 12,6 26 14 - - ZZW 1014,0 13 0,0
14.06.2018 02:00:00 13,4 12,5 22 12 - - ZZW 1014,6 13 0,0
14.06.2018 01:00:00 13,3 12,8 26 14 - - ZW 1015,4 14 0,0
14.06.2018 00:00:00 13,6 13,0 26 14 - - ZW 1016,3 12 0,0
13.06.2018 23:00:00 13,6 12,9 26 14 - - ZW 1016,5 15 0,0
13.06.2018 22:00:00 13,7 12,8 24 13 - - ZW 1016,6 14 0,0
13.06.2018 21:00:00 13,9 13,0 26 14 - - WZW 1016,6 13 0,0

tt = temperatuur
td = dauwpunt
ff = windsnelheid
fx = windstoten
dd = windrichting
ppp = luchtdruk
vv = zicht
rr = neerslag

Weerstations in de omgeving